GFSGL_con_lsi_021.txt.gz
Lid_Strength_Index
14 14 15 16 16 16 17 17 17 18 18 19 18 18 19 19 18 18 18 18 18 18 17 17 17 16 16 16 15 15 16 15 18 16 15 12 12 10 9 8 8 7 6
14 15 15 16 17 18 19 18 18 19 19 19 19 19 19 19 19 19 20 19 19 19 18 18 18 17 17 17 17 17 16 16 17 17 15 13 13 12 11 10 7 8 8
14 15 17 18 19 19 19 19 19 19 19 19 20 20 20 20 20 20 20 20 19 19 19 19 18 17 17 17 17 17 16 16 15 15 16 14 14 12 12 10 8 8 6
15 17 18 19 19 19 19 20 20 20 20 20 20 20 20 20 20 20 20 20 19 19 18 17 17 17 17 17 16 16 16 16 15 16 16 15 14 13 12 10 10 7 7
17 18 19 19 19 20 20 20 20 20 21 21 21 21 21 20 20 20 20 19 19 19 18 17 17 16 15 15 16 16 16 15 15 16 16 16 15 14 12 10 9 7 7
18 19 19 20 20 21 21 21 21 21 21 21 21 21 21 20 19 18 18 18 18 18 18 18 17 16 16 14 14 14 13 15 16 16 16 16 15 14 13 12 10 9 11
19 19 20 21 22 21 21 22 23 22 22 22 22 21 21 21 19 18 17 18 19 18 18 18 17 16 15 16 15 14 13 13 13 14 15 14 14 13 12 12 12 10 10
19 21 21 21 22 22 23 23 23 23 22 22 22 22 22 21 19 18 18 18 18 18 18 17 17 16 15 16 15 15 15 15 15 14 14 14 13 12 12 12 12 11 10
20 21 22 22 23 23 24 24 23 23 22 22 22 22 22 22 20 18 17 18 18 18 17 16 16 16 14 14 15 16 16 15 13 12 11 11 10 10 11 13 14 12 12
21 22 22 22 24 24 24 24 23 23 23 22 22 22 22 23 20 18 17 18 19 17 16 15 14 16 15 13 15 16 17 16 15 14 13 12 11 11 10 12 12 14 13
21 22 23 24 24 24 24 24 24 24 24 24 24 22 21 20 20 18 16 17 17 17 17 17 17 16 14 12 13 15 16 14 14 14 14 13 12 12 12 12 12 12 11
22 24 24 25 24 25 26 26 25 25 25 24 23 22 20 20 19 18 16 15 15 17 18 18 17 15 14 13 14 13 12 11 13 13 13 13 13 12 12 11 11 11 10
24 25 26 26 25 26 27 26 25 25 24 23 22 22 21 20 19 17 16 15 15 17 17 17 17 15 14 15 15 14 14 13 14 14 14 13 12 12 11 10 10 10 10
25 25 26 26 26 26 25 24 24 24 23 23 22 23 22 20 19 18 17 17 16 17 17 20 18 16 16 16 17 16 16 15 15 14 13 12 11 11 12 11 12 11 10
25 25 26 25 26 25 24 24 23 23 22 22 22 22 21 21 19 16 16 18 17 17 20 21 20 19 20 19 19 17 17 17 16 16 16 13 12 11 11 11 10 11 11
25 25 25 26 25 25 25 26 23 23 22 21 20 20 19 17 16 15 16 16 17 17 22 21 21 21 21 20 20 19 18 18 18 17 16 15 14 13 11 10 9 10 11
24 25 26 26 26 26 25 25 26 24 23 22 21 19 18 17 16 16 16 17 18 19 23 21 21 21 22 20 20 20 19 18 18 17 18 17 17 16 15 11 10 9 11
25 25 26 26 25 26 26 26 25 24 24 23 22 20 18 17 17 17 17 20 24 21 21 21 22 21 22 21 20 21 19 19 19 18 19 19 19 19 18 16 12 10 13
26 25 26 26 26 26 26 26 26 25 25 25 24 21 22 19 18 19 19 24 24 22 21 21 21 21 22 21 20 21 19 20 20 20 20 21 21 20 20 18 17 14 12
27 27 28 28 28 27 26 26 25 25 25 25 24 25 25 23 24 24 23 23 22 22 22 22 21 21 21 21 21 21 19 20 20 21 21 21 21 21 21 20 19 18 12
27 28 28 28 27 27 26 25 25 25 25 26 25 25 19 26 25 25 24 23 22 22 22 22 22 21 21 21 21 21 19 20 19 21 22 22 22 22 21 20 20 20 11
28 28 28 28 27 27 27 25 25 25 26 26 25 25 22 25 25 25 24 23 23 22 22 22 22 21 21 21 21 20 19 19 19 21 22 22 22 22 21 21 20 18 10
28 27 27 27 26 28 27 26 25 25 26 26 26 26 26 26 26 25 24 23 23 23 23 22 22 21 20 21 20 19 19 19 19 20 22 22 22 22 22 22 22 19 12
27 26 27 27 27 26 26 26 27 27 26 26 26 27 27 28 26 26 24 24 24 24 23 23 23 22 21 20 19 19 17 17 18 20 21 22 23 23 23 23 22 17 12
26 26 26 26 26 26 27 26 26 26 26 25 27 27 27 26 26 25 24 24 25 24 25 23 22 22 21 21 19 19 17 17 18 19 20 22 23 24 24 24 24 22 11
25 25 26 26 26 26 26 26 27 26 27 27 27 27 27 27 26 25 25 25 25 26 25 23 23 23 21 19 19 16 15 16 17 19 20 22 23 24 25 25 26 24 22

GFSGL_con_lsi_024.txt.gz
Lid_Strength_Index
15 14 15 16 17 17 18 19 19 19 19 20 20 20 20 20 19 20 20 20 20 20 19 19 19 18 19 18 17 17 17 17 19 18 16 15 16 15 15 14 13 13 12
14 15 16 17 17 18 19 19 19 20 20 20 20 21 21 21 20 21 21 21 21 20 20 20 20 19 19 18 18 19 18 18 18 19 18 17 16 15 15 15 13 11 11
15 15 16 17 17 18 19 20 20 20 21 21 21 21 21 21 21 21 21 21 21 21 20 20 20 19 19 19 18 18 18 17 17 18 18 16 16 15 15 14 13 13 11
15 16 16 17 18 19 19 20 20 21 21 21 21 21 21 21 21 21 21 21 21 20 19 19 19 19 19 18 18 18 18 18 18 18 18 17 16 14 14 15 15 13 12
15 16 17 18 19 20 20 21 21 21 21 21 21 21 21 21 21 21 21 20 20 20 19 18 18 18 17 16 17 17 17 18 17 17 17 17 17 16 16 15 15 14 13
15 16 18 19 20 20 20 20 21 21 21 21 21 21 22 21 20 18 18 20 19 19 20 19 18 18 17 16 15 14 15 16 17 17 17 17 16 15 15 15 15 15 16
17 18 19 19 20 20 20 21 21 21 21 21 21 22 22 22 20 19 18 19 19 20 19 19 18 17 17 17 16 14 14 13 13 15 17 16 17 15 14 15 14 14 15
18 18 19 20 21 21 21 21 21 21 21 22 22 22 22 22 20 19 18 19 19 19 19 18 18 18 16 16 16 16 16 15 15 15 14 14 15 14 14 15 14 14 13
18 19 20 20 21 21 22 22 22 22 22 22 22 23 23 23 20 19 18 20 19 19 18 17 17 17 16 14 16 17 17 16 13 12 12 12 12 11 11 13 15 16 16
19 20 20 19 20 21 21 22 21 21 22 22 22 22 23 24 21 19 18 19 21 19 18 17 16 17 15 14 16 16 18 17 15 15 15 14 13 13 12 12 13 15 14
18 20 20 20 21 21 22 22 22 23 22 23 23 23 22 22 22 19 17 18 19 18 19 19 18 16 14 14 14 16 18 14 14 15 15 14 13 13 13 13 13 13 15
20 21 22 22 22 22 24 23 23 24 24 24 24 23 21 20 20 19 17 16 16 19 19 18 18 15 15 15 16 15 14 13 17 17 16 14 14 13 12 12 12 12 12
21 23 23 23 24 23 24 25 25 24 24 24 23 22 22 21 20 19 18 16 16 18 18 17 16 16 16 18 17 16 15 17 18 18 18 16 14 12 11 11 10 11 11
23 24 24 24 25 24 24 24 24 24 23 22 22 23 23 22 22 21 19 20 17 18 17 21 19 18 18 19 19 16 16 18 17 18 18 16 15 14 13 11 12 11 12
24 25 25 24 24 24 23 24 23 22 22 23 24 23 24 26 23 17 17 17 18 18 21 24 24 23 23 22 19 18 18 18 18 17 18 18 16 16 15 13 11 12 13
25 25 25 25 24 23 23 23 20 20 19 20 20 22 22 19 17 16 16 15 17 17 27 26 25 24 24 22 20 20 19 19 19 18 18 18 17 17 17 16 15 13 12
24 24 24 24 24 24 25 25 25 22 20 20 21 20 19 19 17 16 15 16 18 21 32 26 26 25 23 20 20 20 20 19 19 18 18 18 18 19 19 19 17 15 13
23 24 24 24 23 24 24 25 25 27 27 26 22 21 20 18 17 16 16 22 29 26 30 27 26 25 21 20 20 20 20 20 19 18 18 19 20 20 20 20 20 19 17
23 24 23 23 23 24 24 25 25 26 27 28 27 23 24 19 18 18 20 32 34 32 28 27 25 23 21 21 20 20 21 21 19 18 19 20 20 21 21 21 21 20 19
23 23 24 25 25 26 25 26 27 28 28 28 29 30 32 30 34 35 34 35 35 33 28 27 25 22 21 21 21 20 20 20 19 18 19 20 20 21 21 21 21 21 21
22 24 25 26 26 26 26 27 27 27 28 29 31 30 22 32 35 36 36 36 35 33 29 27 24 23 21 21 21 21 21 20 18 18 19 20 21 21 21 21 21 21 20
23 25 25 26 26 26 27 27 27 27 27 28 31 29 21 31 34 36 37 36 35 34 31 28 25 23 22 22 21 21 20 20 18 18 19 20 21 21 21 21 22 21 20
24 24 26 26 26 27 27 27 27 27 27 29 28 29 31 34 36 37 37 36 35 31 30 29 26 24 22 21 21 20 19 20 17 18 19 20 21 22 22 22 22 22 21
25 26 26 27 27 27 27 27 27 27 28 29 29 32 32 35 37 36 36 36 33 30 31 29 26 25 23 22 21 19 18 18 16 18 19 20 21 22 22 23 23 23 23
25 26 27 26 27 27 27 28 28 28 28 28 30 31 33 34 35 36 36 35 32 31 29 28 26 25 24 23 21 20 18 16 15 18 19 20 21 22 22 23 23 23 24
26 26 25 25 26 26 27 27 28 28 28 30 30 32 33 34 34 36 35 33 31 30 29 27 26 26 25 22 19 18 16 14 15 17 19 20 21 22 22 23 24 25 25

GFSGL_con_lsi_030.txt.gz
Lid_Strength_Index
14 13 14 15 15 15 16 16 17 17 18 18 18 18 19 19 19 20 20 20 20 20 19 19 19 19 19 19 19 19 19 20 22 20 19 18 18 18 17 17 16 17 16
14 14 14 15 16 16 17 17 17 17 18 18 18 19 19 19 20 20 20 20 20 20 20 20 20 19 20 19 19 20 20 20 21 22 20 19 19 18 18 18 17 16 16
15 15 16 16 17 16 16 17 17 18 18 18 18 19 19 19 20 20 20 20 20 20 20 20 20 20 20 20 20 20 20 20 20 21 21 19 19 18 18 18 17 17 16
15 16 16 16 16 16 16 17 17 17 18 18 19 19 19 20 20 20 20 20 21 20 20 20 20 20 20 20 20 20 19 20 20 20 20 20 19 18 18 18 18 16 16
15 16 15 15 15 15 16 17 17 17 18 18 19 19 19 20 19 20 19 20 20 20 19 19 19 18 18 18 19 19 19 20 20 20 20 19 19 19 18 17 18 18 17
15 15 14 15 16 16 17 17 18 18 19 19 19 19 20 19 16 16 18 19 19 19 19 18 18 18 18 17 16 16 16 18 19 19 19 19 19 18 17 17 18 19 21
15 15 16 16 17 18 18 18 18 18 19 19 19 19 20 20 15 15 16 18 18 18 18 18 18 18 18 18 17 16 16 15 15 17 18 18 18 17 17 18 18 18 18
15 15 16 17 18 19 19 18 19 19 19 20 20 20 20 19 15 14 15 17 17 18 18 18 18 18 18 17 17 17 17 17 17 16 16 16 16 16 15 15 16 16 16
16 16 17 17 19 20 20 20 19 19 20 20 20 20 19 19 15 14 15 17 18 18 17 17 18 18 17 15 17 18 17 17 15 15 14 14 13 13 14 17 19 20 21
18 18 18 17 18 19 19 20 19 19 19 20 20 19 19 19 15 14 15 18 20 19 19 18 17 17 16 15 17 17 19 18 18 18 17 18 17 18 16 17 18 20 20
19 19 19 18 19 19 19 19 20 20 19 20 21 20 20 20 17 15 15 18 20 20 20 19 18 16 16 15 15 18 20 17 18 20 21 21 20 19 18 17 17 17 18
20 20 20 19 20 20 20 21 20 20 21 21 22 22 21 21 19 16 15 16 17 21 20 19 18 17 16 16 17 17 16 17 22 23 23 22 21 20 18 18 17 15 14
19 19 20 20 20 20 21 21 21 21 21 22 22 23 23 21 20 16 16 16 16 19 18 18 17 17 17 19 18 18 19 22 22 23 23 21 20 19 18 18 15 15 15
19 19 20 20 20 20 20 20 21 21 22 22 22 22 22 22 21 19 19 18 16 18 18 22 20 19 19 19 21 20 21 21 21 22 21 20 19 19 19 16 16 16 18
18 20 20 20 20 21 20 21 20 20 20 21 22 21 22 23 21 19 19 20 21 20 26 27 26 24 23 22 22 21 21 21 21 21 21 21 21 20 18 16 16 18 20
19 20 21 21 21 21 21 22 18 18 17 17 17 19 20 18 18 16 16 16 16 18 28 30 27 26 24 22 22 22 21 21 21 21 21 21 21 20 18 17 17 19 20
19 20 21 22 22 22 22 22 23 19 17 16 16 17 17 17 15 15 15 16 16 22 29 29 29 27 25 23 22 22 23 22 21 22 22 21 20 18 18 18 18 19 20
18 19 20 21 22 22 22 22 21 21 21 20 17 17 16 15 15 15 16 18 25 28 30 31 32 30 26 24 24 24 24 23 23 22 22 21 19 18 18 19 19 20 20
18 19 20 20 21 21 22 21 21 20 20 20 19 16 15 14 14 15 17 29 30 31 32 33 31 30 28 26 26 26 26 25 24 23 22 21 18 18 18 19 19 19 20
19 18 20 20 21 21 22 22 21 21 21 20 19 19 23 16 20 27 29 30 32 32 32 32 32 34 31 31 30 28 27 25 24 22 21 19 18 17 18 19 19 20 20
17 18 19 19 20 20 20 20 21 21 21 20 21 21 20 21 25 27 29 30 30 31 31 32 34 34 33 33 34 30 27 26 24 22 20 18 17 18 18 19 19 20 20
17 17 18 19 19 19 19 19 20 21 21 23 24 19 17 25 26 28 28 29 30 31 34 35 33 34 33 34 34 31 28 27 24 22 21 18 17 18 19 20 20 20 20
18 18 19 19 19 19 20 20 21 21 22 23 22 21 25 26 27 27 28 30 33 35 35 36 35 34 34 33 33 31 29 27 24 22 20 18 17 19 19 20 20 21 21
19 19 20 21 21 21 21 22 22 22 23 23 24 26 26 27 27 28 30 33 35 34 35 36 36 35 34 33 32 29 27 25 23 20 18 17 18 19 20 21 21 21 22
21 21 22 21 22 23 23 24 24 24 24 25 26 26 27 27 28 29 32 33 32 35 35 35 35 35 34 33 31 30 27 23 20 17 16 19 18 20 20 21 21 21 22
22 22 22 22 23 24 25 26 26 25 25 26 26 26 26 27 28 30 30 31 32 33 34 35 35 34 33 31 29 25 20 18 17 13 17 18 18 19 20 21 21 22 22

GFSGL_con_lsi_033.txt.gz
Lid_Strength_Index
13 13 13 13 13 14 14 15 15 16 17 17 17 18 18 18 19 19 19 19 20 20 20 19 20 19 20 20 19 19 20 20 22 20 19 19 19 19 18 17 17 18 17
13 13 14 14 15 14 15 15 16 16 17 17 17 18 18 18 18 19 20 19 20 20 20 20 20 19 20 20 21 20 20 19 20 22 20 20 19 18 18 19 18 17 17
14 14 15 15 15 15 15 15 16 17 17 17 18 18 18 18 19 19 19 19 20 20 20 20 21 21 21 21 20 20 20 19 20 21 21 19 19 18 18 18 18 17 16
14 14 14 14 15 14 14 16 17 17 17 18 18 18 18 18 18 19 19 20 20 20 20 20 20 20 20 20 20 19 19 20 20 20 20 20 19 18 18 19 19 17 17
14 14 15 14 14 15 16 16 16 17 17 17 18 18 18 18 18 19 19 20 20 21 20 19 20 19 18 18 19 19 19 20 20 20 20 19 19 18 19 18 18 18 18
13 14 14 14 15 16 16 16 17 17 17 17 18 18 19 19 16 16 18 20 20 20 20 20 19 19 18 16 15 15 15 19 20 19 19 19 18 17 17 18 18 19 20
14 13 14 15 15 16 17 17 17 17 17 18 18 19 19 19 15 15 16 19 19 19 19 19 18 18 18 18 16 15 15 15 15 16 18 18 18 18 17 18 18 18 18
14 14 15 15 16 17 17 17 18 18 18 19 19 19 19 19 14 14 16 19 19 19 18 18 18 18 18 18 18 18 18 17 17 17 17 17 16 16 15 16 16 17 18
16 16 17 17 17 19 19 19 19 19 19 19 19 19 19 19 14 14 16 19 19 19 18 17 17 18 17 16 17 19 18 17 15 14 13 13 13 13 13 17 20 21 22
16 17 18 18 18 19 19 19 19 19 18 19 19 19 19 18 14 13 15 18 19 19 18 17 17 18 17 16 19 20 19 18 17 18 17 16 16 17 16 17 19 22 22
18 19 20 19 18 18 19 19 19 19 19 19 20 19 19 18 16 13 14 18 19 19 19 19 18 16 16 16 16 18 19 17 18 20 21 21 20 19 18 18 18 19 21
19 19 19 21 20 18 19 19 19 19 20 20 21 21 20 19 16 13 14 16 17 20 20 19 19 17 16 16 16 17 16 16 23 23 23 22 21 20 18 18 17 17 17
17 18 18 17 18 18 19 19 20 20 20 21 21 22 22 21 18 14 14 15 16 19 19 18 17 17 17 18 18 17 19 22 23 24 23 22 20 19 18 18 18 17 17
16 16 17 18 19 18 18 18 19 20 20 20 21 22 22 22 20 17 16 15 16 17 17 18 18 20 20 20 21 20 21 21 22 22 22 20 19 20 20 18 19 19 20
15 16 18 18 18 19 19 18 19 18 18 20 20 20 21 22 20 17 16 17 17 18 23 24 25 24 23 23 22 22 22 22 22 21 21 21 20 19 20 19 19 20 21
18 16 18 18 19 19 19 19 16 16 16 15 16 18 19 18 17 15 15 15 15 16 25 25 25 25 24 23 24 23 22 22 20 20 21 21 21 21 21 20 19 20 20
21 18 17 19 19 20 20 20 21 17 16 15 15 15 17 17 16 15 15 15 15 18 26 25 25 25 25 24 24 23 23 21 20 20 21 21 21 21 21 21 20 19 19
21 19 17 18 19 20 20 20 20 20 21 19 16 16 16 16 15 15 15 15 19 24 27 27 26 26 26 25 24 24 23 22 22 22 22 22 22 22 22 21 20 20 19
22 20 18 17 19 19 20 21 20 20 20 20 18 16 16 14 14 14 14 19 25 28 28 28 28 27 27 27 26 27 27 26 25 25 24 23 22 22 21 20 19 19 19
22 20 19 18 19 20 21 20 20 20 20 19 19 19 17 16 16 18 24 24 25 27 28 28 30 30 30 29 30 31 30 29 28 26 25 23 22 21 21 19 19 19 19
21 20 18 17 19 19 20 20 20 19 19 19 19 17 14 16 21 24 25 26 26 27 28 29 31 33 32 32 33 34 33 28 28 27 25 24 22 22 20 18 19 19 19
20 19 16 17 18 18 18 17 17 17 17 18 19 17 14 22 23 25 25 26 27 28 30 30 31 32 31 32 34 36 33 31 30 28 25 24 23 21 19 19 19 19 20
20 18 17 17 18 17 17 17 17 17 20 19 17 18 21 22 24 25 26 27 29 31 31 32 32 32 33 34 35 34 33 30 29 27 25 25 23 20 19 19 20 20 21
18 18 18 19 18 18 19 19 19 20 20 19 18 22 23 24 25 26 27 29 30 30 31 32 33 33 34 35 34 34 32 30 29 27 26 24 20 19 19 20 20 20 20
19 19 20 20 20 20 21 21 21 21 20 22 23 24 24 25 26 27 28 29 29 29 30 31 32 32 33 32 32 33 31 26 26 24 21 18 18 20 20 20 20 20 20
21 21 21 21 22 22 22 22 22 22 23 24 25 25 25 26 27 27 27 27 28 28 29 29 30 31 31 32 32 29 24 20 20 18 15 15 21 19 19 21 21 20 20

GFSGL_con_lsi_036.txt.gz
Lid_Strength_Index
14 14 14 14 14 15 15 14 14 14 15 16 16 16 16 17 18 18 18 19 19 19 19 19 20 20 20 20 19 19 20 21 23 21 20 20 20 19 19 18 17 17 17
14 15 14 14 15 15 14 14 14 14 15 15 15 16 17 17 18 18 19 19 19 20 20 20 20 19 21 20 20 20 20 20 21 23 21 21 20 19 19 18 17 16 16
14 15 16 16 15 14 13 14 14 14 16 15 15 16 16 17 18 18 18 19 19 19 19 20 20 20 21 21 21 21 21 20 21 22 22 20 20 19 18 17 17 17 16
14 15 15 15 15 14 14 15 15 14 15 15 15 16 17 17 17 18 18 19 18 18 19 19 20 20 20 21 21 21 21 22 21 22 21 20 19 18 18 18 18 17 17
14 13 14 14 14 14 14 14 15 16 16 15 16 16 16 17 17 18 18 18 19 19 19 19 19 19 18 19 21 21 21 22 21 21 21 20 19 19 19 18 18 18 17
15 15 14 14 14 15 14 15 16 16 16 16 17 17 17 17 15 15 17 19 19 20 20 20 20 20 18 17 17 17 18 21 23 22 21 20 19 18 18 18 18 19 20
14 15 14 13 13 14 15 15 16 16 16 17 16 17 17 17 14 14 15 18 18 19 20 20 20 20 20 18 16 15 15 15 16 18 23 19 19 18 18 18 18 18 18
14 14 14 14 13 15 16 16 17 16 17 17 17 17 18 18 14 13 14 18 19 19 19 20 20 20 19 18 18 18 18 18 17 17 18 18 17 17 16 16 17 19 19
14 15 15 16 15 16 17 17 18 17 17 17 17 18 18 18 14 13 15 19 19 20 20 19 19 19 17 16 19 20 20 18 16 14 15 15 15 14 15 19 22 23 23
13 15 16 17 17 17 16 18 18 17 17 17 18 18 18 18 14 13 16 18 20 20 19 18 17 18 16 15 19 20 20 19 18 20 19 18 18 19 18 19 21 24 23
15 15 15 17 17 16 17 17 17 17 19 18 19 19 18 18 16 13 15 18 19 19 20 20 19 16 16 15 15 19 19 18 19 21 22 22 21 21 20 19 19 19 22
17 15 15 16 17 17 17 17 17 18 19 19 19 20 19 17 15 12 13 16 16 19 19 19 19 16 15 15 15 16 16 18 23 24 24 24 23 22 20 19 18 18 18
18 18 16 15 17 17 17 18 18 19 20 20 19 20 20 19 16 12 13 14 15 18 19 18 17 15 15 15 15 16 19 22 25 27 25 24 22 20 19 20 19 19 18
21 20 18 16 16 17 17 18 18 19 18 19 19 20 20 20 18 15 14 16 16 18 18 18 17 16 17 19 18 19 21 22 22 23 23 22 21 21 21 20 21 20 20
21 21 20 18 16 16 18 18 18 17 17 18 18 18 20 21 18 15 14 17 17 19 19 19 19 21 22 22 23 23 22 22 23 23 23 22 22 21 21 20 20 21 22
22 22 21 20 19 16 17 17 14 14 14 14 15 16 18 17 15 14 13 14 15 16 21 22 23 23 23 23 23 23 23 23 23 23 23 22 22 22 21 20 20 21 21
24 23 22 21 20 18 17 18 18 16 13 14 13 14 15 16 15 14 13 13 14 17 22 23 23 23 23 23 23 24 24 23 23 23 23 23 22 22 22 21 21 20 21
24 23 23 22 20 18 17 18 18 18 18 17 14 14 14 15 14 14 13 13 17 19 22 22 23 23 24 24 24 25 25 24 24 24 24 24 26 24 23 23 21 22 21
24 24 23 22 21 20 17 17 17 17 17 18 17 14 15 14 14 14 13 16 18 24 23 24 24 25 26 25 25 27 27 27 26 26 27 26 27 25 24 23 21 21 20
23 23 22 22 22 20 17 16 17 18 18 18 18 16 16 16 16 16 15 18 22 24 24 26 27 27 27 27 28 28 28 29 29 28 27 26 25 25 23 23 22 21 20
23 22 22 22 21 19 16 17 17 18 18 18 17 16 15 17 16 17 21 23 24 25 26 27 27 28 28 29 29 30 30 28 28 28 28 27 26 26 24 22 22 20 20
21 21 21 21 20 19 16 16 16 17 17 16 16 15 12 16 21 22 23 25 25 25 26 27 28 28 29 29 29 29 29 29 30 30 29 27 26 25 24 22 21 20 21
20 20 20 20 19 16 17 16 16 16 16 16 15 16 20 22 23 23 25 26 27 27 27 27 28 29 30 30 30 29 30 30 28 30 29 28 27 26 24 22 20 21 22
19 19 20 19 17 17 17 18 17 18 17 16 20 21 22 22 23 24 25 26 27 28 28 29 29 28 29 30 31 32 31 30 31 31 30 28 27 25 22 20 21 22 22
19 19 19 18 18 19 19 20 20 18 20 21 22 23 23 23 24 25 26 26 27 28 29 29 28 28 28 30 30 29 29 26 27 27 27 26 25 23 20 21 22 22 23
21 21 21 21 21 21 21 21 21 22 23 23 23 23 23 24 25 26 26 27 27 27 27 27 27 29 29 28 28 27 25 22 23 23 23 20 18 19 20 22 25 24 23